Regional Weather Roundup
Issued by NWS

Home | Current Version | Previous Version | Graphics & Text | Print | Product List | Glossary On
Versions: 1 2 3 4 5 6 7 8 9 10 11 12 13 14 15 16 17 18 19 20 21 22 23 24 25 26 27 28 29 30 31 32 33 34 35 36 37 38 39 40 41 42 43 44 45 46 47 48 49 50
000
ASUS43 KMPX 032210
RWRMN
WEATHER ROUNDUP FOR MINNESOTA
NATIONAL WEATHER SERVICE TWIN CITIES/CHANHASSEN MN
400 PM CST TUE MAR 03 2015


NOTE: "FAIR" INDICATES FEW OR NO CLOUDS BELOW 12,000 FEET WITH NO
SIGNIFICANT WEATHER AND/OR OBSTRUCTIONS TO VISIBILITY. N/A MEANS
CURRENT SKY AND/OR WEATHER CONDITIONS ARE NOT AVAILABLE.

MNZ060>063-068>070-032300-
   Twin Cities Metro

CITY           SKY/WX    TMP DP  RH WIND       PRES   REMARKS
TWIN CITIES    MOSUNNY   26  11  52 NW22      29.74R WCI  12
ST PAUL        SUNNY     27  13  55 NW23G31   29.75R WCI  12
CRYSTAL        MIX PCPN  24   9  52 NW22G36   29.74R WCI   9
BLAINE         SUNNY     27  14  59 W22G28    29.72R WCI  12
LAKEVILLE      SUNNY     25  14  63 W22       29.73R WCI  10
EDEN PRAIRIE   SUNNY     24  12  60 W17G29    29.75R WCI  11
SOUTH ST PAUL  SUNNY     28  12  52 W18G25    29.73R WCI  15
LAKE ELMO      FAIR      28  14  54 NW17G24   29.72R WCI  16
$$
MNZ001>005-007-008-013>017-022>024-027-028-032300-
   Northwest Minnesota

CITY           SKY/WX    TMP DP  RH WIND       PRES   REMARKS
BEMIDJI        PTSUNNY   10  -1  59 W18G30    29.76R WCI  -8
HALLOCK        PTSUNNY    5  -6  61 NW24G31   29.88R WCI -17
ROSEAU         SUNNY      7  -2  66 W16G23    29.79S WCI -11
WARROAD        SUNNY      7  -8  51 W17G23    29.77R WCI -12
THIEF RVR FALL CLOUDY     7   3  85 W23G30    29.84R VSB 1/2 WCI -14
CROOKSTON      SUNNY      9   0  66 NW25G36   29.89F WCI -13
FOSSTON        MOSUNNY    9  -2  61 W22       29.84R WCI -11
DETROIT LAKES  PTSUNNY   10   3  72 NW26      29.85R HAZE    WCI -11
MOORHEAD       MOSUNNY   14   3  62 NW22G30   29.92R WCI  -4
PARK RAPIDS    PTSUNNY   11   1  64 NW22      29.77R WCI  -8
MAHNOMEN       CLOUDY     8   3  77 NW24G30   29.85R HAZE    WCI -13
$$
MNZ006-009>011-018-025>026-032300-
   North Central Minnesota

CITY           SKY/WX    TMP DP  RH WIND       PRES   REMARKS
BAUDETTE       PTSUNNY    8  -6  52 NW21      29.72R WCI -12
FLAG ISLAND    SUNNY      5  -8  56 NW20G31   29.73R WCI -15
INTL FALLS     PTSUNNY   11  -4  51 W18G26    29.67R WCI  -7
WASKISH        MOSUNNY   10   1  67 W16G23    29.75R WCI  -7
BIG FORK       SUNNY     14  -2  48 W13G22    29.69R WCI   0
LONGVILLE      SUNNY     16  -2  45 W15G24    29.75R WCI   1
GRAND RAPIDS   PTSUNNY   16   1  53 NW21G36   29.68R WCI  -2
CRANE LAKE     SUNNY     12  -2  52 W8G20     29.66R WCI   1
ORR            SUNNY     14   0  52 NW12G22   29.61S WCI   0
COOK           PTSUNNY   16   1  53 W14G20    29.63R WCI   1
WALKER         FAIR      12  -2  55 W16G23    29.75R WCI  -5
$$
MNZ012-019>021-037-032300-
   Northeast Minnesota

CITY           SKY/WX    TMP DP  RH WIND       PRES   REMARKS
DULUTH         MOSUNNY   21   6  52 NW18G28   29.59R WCI   6
ELY            MOSUNNY   16   3  57 NW18G26   29.57R WCI  -1
HIBBING        SUNNY     17   1  49 NW17G33   29.64R WCI   1
EVELETH        MOSUNNY   18   5  57 W16G26    29.63R WCI   3
DULUTH HARBOR  MOSUNNY   23  12  63 W25       29.66R WCI   7
TWO HARBORS    PTSUNNY   25  12  58 W9G30     29.57R WCI  15
SILVER BAY     PTSUNNY   23   9  54 W8G26     29.55R WCI  14
GRAND MARAIS     N/A     26  13  57 NW10G24   29.52R WCI  16
G MARAIS ARPRT LGT SNOW  18   9  68 W17G29    29.44R WCI   2
$$
MNZ029>031-032-039>041-046>048-054>057-064-032300-
   West Central Minnesota

CITY           SKY/WX    TMP DP  RH WIND       PRES   REMARKS
FERGUS FALLS   MOSUNNY   10   0  61 NW29      29.92S WCI -11
WHEATON        MOSUNNY    9   1  72 NW25      29.95S WCI -13
MORRIS         MOSUNNY   12   5  73 NW25G31   29.90R HAZE    WCI  -8
ALEXANDRIA     CLOUDY    13   3  64 NW24G35   29.83R HAZE    WCI  -7
ELBOW LAKE     CLOUDY    11   4  72 NW29      29.88S HAZE    WCI -10
WADENA         MOSUNNY   10   1  67 NW17G23   29.81R WCI  -7
GLENWOOD       MOSUNNY   12   7  79 NW26G35   29.84R HAZE    WCI  -8
APPLETON       PTSUNNY   16   7  67 NW26G33   29.93R HAZE    WCI  -3
BENSON         FLURRIES  14   5  67 N28G36    29.89R WCI  -6
ORTONVILLE     PTSUNNY   12   3  67 NW23G32   29.93R HAZE    WCI  -7
MADISON        MOSUNNY   14   5  67 NW26G33   29.94R HAZE    WCI  -6
WILLMAR        PTSUNNY   16   7  67 NW31G38   29.86R HAZE    WCI  -5
$$
MNZ033>034-036-042>043-049>051-058-059-032300-
   Central Minnesota

CITY           SKY/WX    TMP DP  RH WIND       PRES   REMARKS
ST CLOUD       SUNNY     19   8  62 NW24G31   29.77R WCI   2
SAUK CENTRE    FAIR      14   4  65 NW23G30   29.81R HAZE    WCI  -5
PAYNESVILLE    CLOUDY    13   5  71 W23G29    29.82S HAZE    WCI  -6
AITKIN         SUNNY     23   3  42 NW7G20    29.71R WCI  15
PINE RIVER     CLOUDY    16   3  57 W13G22    29.79R WCI   2
BRAINERD       SUNNY     17   4  56 W17G30    29.75R WCI   1
STAPLES        PTSUNNY   12   3  67 NW21      29.79S WCI  -6
LITTLE FALLS   FLURRIES  18   3  53 NW20G26   29.79R WCI   1
LITCHFIELD     CLOUDY    18  10  73 NW18G28   29.82R WCI   2
BUFFALO        SUNNY     22   9  58 W17G28    29.79R WCI   7
MAPLE LAKE     MOSUNNY   21  11  65 W17G24    29.79R WCI   7
$$
MNZ037-044-045-052-053-032300-
   East Central Minnesota

CITY           SKY/WX    TMP DP  RH WIND       PRES   REMARKS
PRINCETON      SUNNY     21  10  63 W18G25    29.74R WCI   6
MORA           SUNNY     25   9  50 NW17G23   29.72R HAZE    WCI  11
CAMBRIDGE      SUNNY     27  10  50 NW18G26   29.71R WCI  13
RUSH CITY      SUNNY     26   9  48 NW12G18   29.71R WCI  16
MOOSE LAKE     SUNNY     23   5  46 NW16G28   29.67R WCI  10
HINCKLEY       FAIR      27   9  46 NW13G21   29.69R WCI  16
CLOQUET        FAIR      19   3  49 W21G29    29.64R HAZE    WCI   3
MCGREGOR       SUNNY     19   5  53 NW18      29.70R WCI   4
$$
MNZ071>073-080-081-089-090-097-098-032300-
   Southwest Minnesota

CITY           SKY/WX    TMP DP  RH WIND       PRES   REMARKS
MONTEVIDEO     PTSUNNY   16  14  93 N25G33    29.91S FOG     WCI  -3
GRANITE FALLS  MOSUNNY   15   7  71 NW26G33   29.91S WCI  -5
CANBY          PTSUNNY   14   6  68 NW29G38   29.94R HAZE    WCI  -6
MARSHALL       PTSUNNY   16   3  57 NW31      29.91R WCI  -5
REDWOOD FALLS  CLOUDY    16   5  62 NW24G38   29.88R WCI  -2
OLIVIA         LGT SNOW  16  12  86 NW25G36   29.85R VSB 1   WCI  -3
PIPESTONE      PTSUNNY   12   7  79 NW21G31   29.90R HAZE    WCI  -6
WINDOM         FLURRIES  16   9  73 NW23G31   29.86R WCI  -2
WORTHINGTON    PTSUNNY   18   7  62 NW25      29.89R WCI  -1
JACKSON        LGT SNOW  19  10  68 NW21G28   29.86R WCI   3
TRACY          MOSUNNY   16   9  71 NW24      29.90R WCI  -2
SLAYTON        CLOUDY    15   7  71 NW25G33   29.88R HAZE    WCI  -4
$$
MNZ065>067-074>077-082>085-091>093-032300-
   South Central Minnesota

CITY           SKY/WX    TMP DP  RH WIND       PRES   REMARKS
MANKATO        CLOUDY   N/A N/A N/A NW29G36   29.81R
NEW ULM        LGT SNOW  16  10  79 NW25G32   29.85R WCI  -3
ST JAMES       CLOUDY    19  12  73 W24G32    29.86R WCI   2
FAIRMONT       PTSUNNY   19  10  68 NW22G33   29.85R WCI   3
GLENCOE        MOSUNNY   20  12  72 NW20G30   29.80R HAZE    WCI   5
FARIBAULT      MOSUNNY   25  14  63 NW21G26   29.77R WCI  10
OWATONNA       PTSUNNY   23  18  80 W21G32    29.77R HAZE    WCI   8
WASECA         CLOUDY    21  18  86 W29       29.80R HAZE    WCI   3
ALBERT LEA     CLOUDY    23  16  74 NW16G23   29.78R WCI  10
$$
MNZ078>079-086>088-094>096-032300-
   Southeast Minnesota

CITY           SKY/WX    TMP DP  RH WIND       PRES   REMARKS
ROCHESTER      CLOUDY    26  21  81 NW25      29.70R HAZE    WCI  11
RED WING       CLOUDY    28  19  69 NW13G21   29.71R WCI  18
STANTON        MOSUNNY   27  17  64 W21       29.74R WCI  14
DODGE CENTER   CLOUDY    25  19  80 NW21      29.72R WCI  10
WINONA         CLOUDY    32  23  69 NW13      29.70R WCI  22
AUSTIN         CLOUDY    25  19  80 MISG      29.75R FOG
PRESTON        CLOUDY    27  22  82 NW17G24   29.70R WCI  14
$$
ABBREVIATIONS USED IN REMARKS
   TC - TEMPERATURES IN CELSIUS
  WCI - WIND CHILL INDEX
   HX - HEAT INDEX
  VSB - VISIBILITY
$$


USA.gov is the U.S. government's official web portal to all federal, state and local government web resources and services.